This is the latest recevied weather packets stored in our database for station/object ON5MM-5. If no packets are shown the sender has not sent any weather packets the latest 10 day(s).
| Time | Temp. | Humidity | Pressure | Rain* | Wind** | Luminosity | Snow |
|---|---|---|---|---|---|---|---|
| 1777251003 | 3.33° C | 72% | 1024.9 hPa | 0 mm | 0 m/s | - | - |
| 1777250702 | 3.89° C | 72% | 1025 hPa | 0 mm | 0 m/s | - | - |
| 1777250403 | 3.89° C | 71% | 1025 hPa | 0 mm | 0 m/s | - | - |
| 1777250102 | 3.89° C | 71% | 1025 hPa | 0 mm | 0 m/s | - | - |
| 1777249802 | 3.89° C | 71% | 1025.1 hPa | 0 mm | 0 m/s | - | - |
| 1777249503 | 3.89° C | 71% | 1025.1 hPa | 0 mm | 0 m/s | - | - |
| 1777249202 | 3.89° C | 71% | 1025.1 hPa | 0 mm | 0 m/s | - | - |
| 1777248903 | 3.89° C | 70% | 1025.1 hPa | 0 mm | 0 m/s | - | - |
| 1777248602 | 4.44° C | 69% | 1025 hPa | 0 mm | 0 m/s | - | - |
| 1777248302 | 5° C | 67% | 1025.1 hPa | 0 mm | 0 m/s | - | - |
| 1777248003 | 5.56° C | 64% | 1025 hPa | 0 mm | 0 m/s | - | - |
| 1777247702 | 5° C | 65% | 1025.1 hPa | 0 mm | 0 m/s | - | - |
| 1777247402 | 5° C | 67% | 1025.1 hPa | 0 mm | 0 m/s | - | - |
| 1777247102 | 5° C | 67% | 1025.1 hPa | 0 mm | 0 m/s | - | - |
| 1777246803 | 5° C | 67% | 1025 hPa | 0 mm | 0 m/s | - | - |
| 1777246502 | 5° C | 66% | 1025 hPa | 0 mm | 0 m/s | - | - |
| 1777246203 | 5.56° C | 64% | 1025.1 hPa | 0 mm | 0 m/s | - | - |
| 1777245902 | 5.56° C | 61% | 1025.1 hPa | 0 mm | 0 m/s | - | - |
| 1777245603 | 6.11° C | 60% | 1025.1 hPa | 0 mm | 0 m/s | - | - |
| 1777245303 | 6.11° C | 59% | 1025.2 hPa | 0 mm | 0 m/s | - | - |
| 1777245003 | 6.67° C | 59% | 1025.1 hPa | 0 mm | 0 m/s | - | - |
| 1777244703 | 6.67° C | 58% | 1025.2 hPa | 0 mm | 0 m/s | - | - |
| 1777244402 | 6.67° C | 58% | 1025.2 hPa | 0 mm | 0 m/s | - | - |
| 1777244102 | 6.67° C | 58% | 1025.2 hPa | 0 mm | 0 m/s | - | - |
| 1777243803 | 6.67° C | 59% | 1025.1 hPa | 0 mm | 0 m/s | - | - |
* Rain latest hour (hover to see other rain measurements)
** Current wind speed in m/s (hover to see current wind gust speed)